User: anonymous   Login
Location: Bas-Clignon
(44.2000°N, 6.6333°E)
Time: 19:21:20
(UTC+00:00)
Language:

Okean O Rocket - Orbit

View from above orbital plane
View from above orbital plane
View from above satellite
View from above satellite

Ground track
Ground track

The orbit data is extracted from the following two-line orbital elements,

1 25861U 99039B   24286.50733416  .00002791  00000-0  37048-3 0  9997
2 25861  98.0757 333.2942 0016390 117.8424 242.4450 14.80543258360899
Epoch (UTC): 12 October 2024 12:10:33
Eccentricity: 0.0016390
inclination: 98.0757°
perigee height: 616 km
apogee height: 639 km
right ascension of ascending node: 333.2942°
argument of perigee: 117.8424°
revolutions per day: 14.80543258
mean anomaly at epoch: 242.4450°
orbit number at epoch: 36089

The dashed part of the orbit path shows where the satellite is in the earth's shadow,  

DLR